{"data":{"norad_id":67433,"intl_designator":"2026-006A","name":"YAOGAN-50 01","alt_names":[],"object_type":"PAYLOAD","status":"ACTIVE","operator":null,"country":"PRC","launch_date":"2026-01-13","launch_site_code":"TAISC","launch_vehicle":null,"mission":null,"orbit_class":"UNKNOWN","rcs_meters":null,"size_class":null,"mass_kg":null,"dimensions":null,"purposes":[],"wikipedia_slug":null,"has_3d_model":false,"image_url":null,"decayed_at":null,"tle_current":{"epoch":"2026-05-25T02:04:06.320064Z","epoch_age_seconds":77680,"freshness":"FRESH","line1":"1 67433U 26006A   26145.08618426  .00000301  00000+0  10203-3 0  9992","line2":"2 67433 142.0350 104.1291 0000912 273.9430  86.1185 13.83243629 18232","mean_motion":13.83243629,"eccentricity":9.12e-5,"inclination_deg":142.035,"raan_deg":104.1291,"arg_perigee_deg":273.943,"mean_anomaly_deg":86.1185,"bstar":0.00010203,"rev_number":1823,"period_min":104.10313626682,"perigee_km":951.73593522479,"apogee_km":953.07302599085,"semimajor_km":7330.5414806078,"source":"CELESTRAK","updated_at":"2026-05-25T13:38:07.002734Z"}}}